Location: Ladrillo (historical)
(32.8195°N, 117.2231°W)
Time: 22:28:13
(UTC+00:00)

Hubble Space Telescope - Visible Passes

Search period start: 22 January 2021 00:00
Search period end: 01 February 2021 00:00
Orbit: 536 x 539 km, 28.5° (Epoch: 22 January)

Date Brightness Start Highest point End Pass type
(mag) Time Alt. Az. Time Alt. Az. Time Alt. Az.
22 Jan 1.6 01:47:13 10° WSW 01:51:08 43° S 01:55:04 10° ESE visible
22 Jan 2.6 03:28:10 10° WSW 03:30:34 29° SW 03:30:34 29° SW visible
23 Jan 1.6 01:36:19 10° WSW 01:40:16 45° S 01:44:14 10° ESE visible
23 Jan 2.1 03:17:21 10° WSW 03:20:29 34° SW 03:20:29 34° SW visible
24 Jan 2.0 03:06:34 10° WSW 03:10:19 34° SSW 03:10:26 34° S visible
25 Jan 2.2 02:55:48 10° WSW 02:59:26 30° SSW 03:00:29 26° SSE visible
26 Jan 2.5 02:45:05 10° WSW 02:48:32 26° SSW 02:50:35 18° SSE visible
27 Jan 2.9 02:34:25 10° WSW 02:37:38 22° SSW 02:40:49 10° SSE visible
28 Jan 3.2 02:23:50 10° WSW 02:26:43 18° SSW 02:29:36 10° SSE visible
29 Jan 3.4 02:13:22 10° WSW 02:15:48 15° SSW 02:18:12 10° SSE visible
30 Jan 3.6 02:03:12 10° SW 02:04:51 12° SSW 02:06:31 10° S visible
